Hourly Data Report for August 02, 2021

TORONTO CITY
ONTARIO
Current Station Operator: ECCC - MSC

43°40'00.000" N
79°24'00.000" W
112.50 m
6158355
71508
XTO

Download Data

Hourly Data (August 2021)
Hourly Data Report for August 2, 2021
TIME
LST
Temp Definition
°C
Dew Point Definition
°C
Rel Hum Definition
%
Precip. Amount Definition
mm

Wind Dir Definition
10's deg

Wind Spd Definition
km/h
Visibility Definition
km
Stn Press Definition
kPa
Hmdx Definition


Wind Chill Definition


Weather Definition


00:00 16.8 13.2 79 0.0       100.17     LegendNANA
01:00 15.7 11.9 78 0.0       100.16     LegendNANA
02:00 15.7 11.5 76 0.0       100.16     LegendNANA
03:00 15.4 11.7 79 0.0       100.19     LegendNANA
04:00 15.3 12.0 81 0.0       100.23     LegendNANA
05:00 15.1 12.2 83 0.0       100.29     LegendNANA
06:00 14.8 12.4 85 0.0       100.35     LegendNANA
07:00 16.9 12.1 73 0.0       100.41     LegendNANA
08:00 19.1 11.4 61 0.0       100.46     LegendNANA
09:00 20.6 10.3 52 0.0       100.51     LegendNANA
10:00 21.8 8.1 41 0.0       100.54     LegendNANA
11:00 22.6 8.4 40 0.0       100.56     LegendNANA
12:00 22.0 7.1 38 0.0       100.55     LegendNANA
13:00 23.1 9.2 41 0.0       100.52     LegendNANA
14:00 23.1 11.4 48 0.0       100.49 25   LegendNANA
15:00 21.9 10.5 48 0.0       100.46     LegendNANA
16:00 22.7 9.9 44 0.0       100.45     LegendNANA
17:00 22.5 9.3 43 0.0       100.40     LegendNANA
18:00 22.3 9.8 45 0.0       100.40     LegendNANA
19:00 21.7 9.6 46 0.0       100.41     LegendNANA
20:00 21.2 11.2 53 0.0       100.44     LegendNANA
21:00 20.0 13.3 66 0.0       100.44     LegendNANA
22:00 19.4 13.8 70 0.0       100.46     LegendNANA
23:00 18.7 11.8 64 0.0       100.50     LegendNANA

Notes on Data Quality.

Legend

  • E = Estimated
  • M = Missing
  • NA = Not Available*
  • [empty] = Indicates an unobserved value
Date modified: